TimeCST,TemperatureF,Dew PointF,Humidity,Sea Level PressureIn,VisibilityMPH,Wind Direction,Wind SpeedMPH,Gust SpeedMPH,PrecipitationIn,Events,Conditions,WindDirDegrees,DateUTC
12:15 AM,18.5,13.8,82,29.79,5.0,NW,21.9,27.6,N/A,,Overcast,320,2013-12-04 06:15:00
12:35 AM,18.3,13.6,82,29.79,7.0,NW,20.7,28.8,N/A,,Overcast,320,2013-12-04 06:35:00
12:55 AM,17.6,12.9,82,29.77,5.0,NNW,23.0,27.6,N/A,Snow,Light Snow,330,2013-12-04 06:55:00
1:15 AM,17.4,12.7,82,29.77,5.0,NW,15.0,26.5,N/A,Snow,Light Snow,320,2013-12-04 07:15:00
1:35 AM,16.7,12.2,82,29.76,3.0,NW,19.6,-,N/A,Snow,Light Snow,320,2013-12-04 07:35:00
1:55 AM,16.5,12.0,82,29.76,2.5,NW,19.6,-,N/A,Snow,Light Snow,320,2013-12-04 07:55:00
2:15 AM,16.2,11.8,83,29.75,3.0,NW,16.1,26.5,N/A,Snow,Light Snow,320,2013-12-04 08:15:00
2:35 AM,16.2,11.7,82,29.78,2.5,NW,19.6,24.2,N/A,Snow,Light Snow,320,2013-12-04 08:35:00
2:55 AM,15.8,11.7,84,29.77,2.5,NW,18.4,24.2,N/A,Snow,Light Snow,320,2013-12-04 08:55:00
3:15 AM,15.6,10.9,82,29.77,3.0,NW,21.9,26.5,N/A,Snow,Light Snow,320,2013-12-04 09:15:00
3:35 AM,15.3,10.6,82,29.76,3.0,NW,18.4,31.1,N/A,Snow,Light Snow,320,2013-12-04 09:35:00
3:55 AM,14.7,10.0,82,29.76,2.0,NW,20.7,28.8,N/A,Snow,Light Snow,320,2013-12-04 09:55:00
4:15 AM,14.4,9.9,82,29.75,1.8,NNW,17.3,26.5,N/A,Snow,Light Snow,330,2013-12-04 10:15:00
4:35 AM,14.0,10.0,84,29.75,1.2,NW,16.1,21.9,N/A,Snow,Light Snow,320,2013-12-04 10:35:00
4:55 AM,14.0,9.5,82,29.73,1.2,NNW,19.6,23.0,N/A,Snow,Light Snow,330,2013-12-04 10:55:00
5:15 AM,13.8,9.3,82,29.74,1.5,NW,18.4,24.2,N/A,Snow,Light Snow,320,2013-12-04 11:15:00
5:35 AM,13.6,9.1,82,29.73,1.8,NNW,18.4,24.2,N/A,Snow,Light Snow,330,2013-12-04 11:35:00
5:55 AM,13.5,8.8,82,29.72,2.0,NW,19.6,26.5,N/A,Snow,Light Snow,320,2013-12-04 11:55:00
6:15 AM,13.1,8.6,82,29.74,1.5,NW,18.4,28.8,N/A,Snow,Light Snow,310,2013-12-04 12:15:00
6:35 AM,13.1,8.4,82,29.76,2.5,WNW,19.6,24.2,N/A,Snow,Light Snow,300,2013-12-04 12:35:00
6:55 AM,12.9,7.7,80,29.74,7.0,NW,20.7,24.2,N/A,,Overcast,310,2013-12-04 12:55:00
7:15 AM,12.7,7.2,78,29.73,10.0,NW,21.9,28.8,N/A,,Overcast,320,2013-12-04 13:15:00
7:35 AM,12.6,7.0,78,29.75,10.0,NW,18.4,28.8,N/A,,Overcast,310,2013-12-04 13:35:00
7:55 AM,12.2,6.6,78,29.76,10.0,NW,23.0,31.1,N/A,,Overcast,310,2013-12-04 13:55:00
8:15 AM,12.0,6.3,78,29.76,10.0,NW,24.2,32.2,N/A,,Overcast,310,2013-12-04 14:15:00
8:35 AM,11.8,6.3,78,29.77,10.0,NW,23.0,31.1,N/A,,Overcast,310,2013-12-04 14:35:00
8:55 AM,12.0,6.3,78,29.77,10.0,NW,20.7,29.9,N/A,,Overcast,320,2013-12-04 14:55:00
9:15 AM,12.0,6.1,77,29.77,10.0,NW,24.2,29.9,N/A,,Overcast,310,2013-12-04 15:15:00
9:35 AM,12.0,6.1,77,29.76,10.0,NW,21.9,26.5,N/A,,Overcast,320,2013-12-04 15:35:00
9:55 AM,12.2,5.9,76,29.76,10.0,NW,21.9,28.8,N/A,,Overcast,310,2013-12-04 15:55:00
10:15 AM,12.6,6.1,75,29.78,7.0,NW,24.2,31.1,N/A,,Overcast,310,2013-12-04 16:15:00
10:35 AM,12.2,5.9,76,29.78,4.0,NW,23.0,29.9,N/A,Snow,Light Snow,310,2013-12-04 16:35:00
10:55 AM,12.6,6.1,75,29.78,7.0,NW,23.0,29.9,N/A,,Overcast,310,2013-12-04 16:55:00
11:15 AM,12.7,5.9,74,29.78,7.0,NW,20.7,29.9,N/A,,Overcast,310,2013-12-04 17:15:00
11:35 AM,12.7,5.9,74,29.78,7.0,NW,25.3,34.5,N/A,,Overcast,310,2013-12-04 17:35:00
11:55 AM,12.9,5.9,74,29.77,10.0,NW,21.9,32.2,N/A,,Overcast,310,2013-12-04 17:55:00
12:15 PM,12.9,5.7,73,29.76,5.0,NW,25.3,36.8,N/A,,Haze,310,2013-12-04 18:15:00
12:35 PM,13.1,6.1,74,29.74,5.0,NW,27.6,38.0,N/A,,Haze,310,2013-12-04 18:35:00
12:55 PM,13.1,5.7,72,29.76,5.0,NW,26.5,36.8,N/A,Snow,Light Snow,310,2013-12-04 18:55:00
1:15 PM,13.1,5.7,72,29.76,10.0,NW,28.8,35.7,N/A,,Overcast,310,2013-12-04 19:15:00
1:35 PM,13.6,6.3,72,29.74,7.0,NW,28.8,33.4,N/A,,Overcast,310,2013-12-04 19:35:00
1:55 PM,13.6,5.9,71,29.78,7.0,WNW,27.6,35.7,N/A,,Overcast,300,2013-12-04 19:55:00
2:15 PM,13.5,6.1,72,29.80,5.0,WNW,28.8,39.1,N/A,,Haze,300,2013-12-04 20:15:00
2:35 PM,12.9,6.3,75,29.80,2.5,NW,27.6,36.8,N/A,Snow,Light Snow,310,2013-12-04 20:35:00
2:55 PM,12.7,5.5,73,29.78,4.0,NW,27.6,35.7,N/A,Snow,Light Snow,310,2013-12-04 20:55:00
3:15 PM,12.2,5.5,75,29.80,7.0,NW,24.2,32.2,N/A,Snow,Light Snow,310,2013-12-04 21:15:00
3:35 PM,12.6,5.0,72,29.81,10.0,NW,25.3,36.8,N/A,Snow,Light Snow,310,2013-12-04 21:35:00
3:55 PM,12.4,4.8,72,29.83,7.0,NW,26.5,34.5,N/A,,Overcast,310,2013-12-04 21:55:00
4:15 PM,12.0,4.8,73,29.85,10.0,NW,25.3,34.5,N/A,,Mostly Cloudy,310,2013-12-04 22:15:00
4:35 PM,11.3,4.8,75,29.84,10.0,NW,28.8,33.4,N/A,,Mostly Cloudy,310,2013-12-04 22:35:00
4:55 PM,11.3,4.8,75,29.87,10.0,WNW,25.3,32.2,N/A,,Scattered Clouds,300,2013-12-04 22:55:00
5:15 PM,11.1,4.3,74,29.88,7.0,NW,28.8,35.7,N/A,,Mostly Cloudy,310,2013-12-04 23:15:00
5:35 PM,10.9,4.1,74,29.88,10.0,NW,24.2,33.4,N/A,,Mostly Cloudy,310,2013-12-04 23:35:00
5:55 PM,10.6,4.1,75,29.87,10.0,NW,23.0,32.2,N/A,,Scattered Clouds,310,2013-12-04 23:55:00
6:15 PM,10.9,4.3,75,29.89,10.0,NW,21.9,32.2,N/A,,Scattered Clouds,310,2013-12-05 00:15:00
6:35 PM,10.9,4.5,75,29.90,10.0,NW,23.0,26.5,N/A,,Mostly Cloudy,310,2013-12-05 00:35:00
6:55 PM,10.8,4.3,75,29.91,10.0,NW,25.3,31.1,N/A,,Overcast,310,2013-12-05 00:55:00
7:15 PM,10.9,4.1,74,29.92,10.0,NW,27.6,36.8,N/A,,Scattered Clouds,310,2013-12-05 01:15:00
7:35 PM,10.8,4.1,75,29.91,10.0,NW,20.7,33.4,N/A,,Clear,320,2013-12-05 01:35:00
7:55 PM,10.4,3.9,75,29.93,10.0,NW,25.3,32.2,N/A,,Clear,310,2013-12-05 01:55:00
8:15 PM,10.4,3.9,75,29.95,10.0,NW,25.3,33.4,N/A,,Clear,310,2013-12-05 02:15:00
8:35 PM,10.0,3.4,74,29.95,7.0,NW,31.1,39.1,N/A,,Scattered Clouds,310,2013-12-05 02:35:00
8:55 PM,9.1,2.1,73,29.96,10.0,NW,26.5,35.7,N/A,,Clear,310,2013-12-05 02:55:00
9:15 PM,8.6,1.4,73,29.98,10.0,NW,21.9,34.5,N/A,,Clear,310,2013-12-05 03:15:00
9:35 PM,7.9,0.5,72,30.00,10.0,NW,25.3,32.2,N/A,,Clear,310,2013-12-05 03:35:00
9:55 PM,7.3,-0.4,71,30.01,10.0,NW,20.7,31.1,N/A,,Clear,310,2013-12-05 03:55:00
10:15 PM,6.6,-1.1,71,30.02,10.0,NW,29.9,35.7,N/A,,Clear,310,2013-12-05 04:15:00
10:35 PM,6.3,-1.5,71,30.02,10.0,NW,25.3,32.2,N/A,,Clear,310,2013-12-05 04:35:00
10:55 PM,5.9,-2.2,69,30.04,10.0,NW,25.3,32.2,N/A,,Clear,310,2013-12-05 04:55:00
11:15 PM,5.5,-2.4,70,30.04,10.0,NW,21.9,27.6,N/A,,Clear,310,2013-12-05 05:15:00
11:35 PM,5.0,-2.9,70,30.06,10.0,NW,19.6,26.5,N/A,,Clear,310,2013-12-05 05:35:00
11:55 PM,5.0,-3.1,69,30.07,10.0,WNW,23.0,31.1,N/A,,Clear,300,2013-12-05 05:55:00